This demonstration page uses our WeatherBlox Daily Observations layout. Learn more.

Left ArrowRight Arrow

Hourly Observations for September 12, 2021

Temp ( °F °C ) Dew Point ( °F °C ) Humidity (%) Winds ( mph kmh ) Pressure ( in mb ) Visibility ( mi km ) Precip ( " mm )
12:54 am 00:54 Clear 72 22.2 64 17.8 76 76 S 9 15 29.83 1010 10 16 N/A
1:54 am 01:54 Clear 71 21.7 63 17.2 76 76 S 8 13 29.83 1010 10 16 N/A
2:54 am 02:54 Clear 71 21.7 63 17.2 76 76 N N/A 29.86 1011 10 16 N/A
3:54 am 03:54 Clear 72 22.2 63 17.2 73 73 WNW 3 6 29.88 1012 10 16 N/A
4:54 am 04:54 Clear 71 21.7 66 18.9 84 84 N 13 20 29.93 1014 10 16 N/A
5:54 am 05:54 Clear 70 21.1 65 18.3 84 84 SE 7 11 29.92 1013 10 16 N/A
6:54 am 06:54 Clear 68 20 64 17.8 87 87 N N/A 29.93 1014 10 16 N/A
7:54 am 07:54 Sunny 69 20.6 64 17.8 84 84 NW 6 9 29.97 1015 10 16 N/A
8:54 am 08:54 Sunny 71 21.7 64 17.8 79 79 SE 6 9 29.94 1014 10 16 N/A
9:28 am 09:28 Mostly Cloudy with Nearby Thunderstorms 70 21.1 64 17.8 82 82 N 7 11 29.97 1015 10 16 N/A
9:37 am 09:37 Partly Cloudy with Nearby Thunderstorms 71 21.7 64 17.8 79 79 NW 15 24 30.01 1016 10 16 N/A
9:47 am 09:47 Mostly Cloudy with Nearby Thunderstorms 70 21.1 63 17.2 79 79 NW 9 15 30.04 1017 10 16 N/A
9:54 am 09:54 Partly Cloudy with Nearby Thunderstorms 70 21.1 63 17.2 79 79 NE 9 15 30.00 1016 10 16 N/A
10:04 am 10:04 Mostly Cloudy with Light Rain 69 20.6 63 17.2 81 81 E 18 30 29.96 1015 9 14 0.00 0.00
10:18 am 10:18 Mostly Cloudy with Light Rain 69 20.6 65 18.3 87 87 undefined N/A 29.93 1014 8 13 0.00 0.00
10:54 am 10:54 Mostly Cloudy with Light Rain 71 21.7 66 18.9 84 84 SSE 17 28 29.89 1012 9 14 0.00 0.00
11:54 am 11:54 Partly Cloudy 73 22.8 66 18.9 79 79 NNW 16 26 29.98 1015 9 14 0.00 0.00
12:38 pm 12:38 Mostly Cloudy 70 21.1 62 16.7 76 76 NNW 10 17 30.01 1016 10 16 N/A
12:54 pm 12:54 Cloudy 70 21.1 62 16.7 76 76 NNE 13 20 29.99 1016 10 16 N/A
1:27 pm 13:27 Partly Cloudy 73 22.8 63 17.2 71 71 N 10 17 29.98 1015 10 16 0.00 0.00
1:54 pm 13:54 Sunny 74 23.3 63 17.2 69 69 N 20 31 30.00 1016 10 16 0.00 0.00
2:54 pm 14:54 Sunny 74 23.3 63 17.2 69 69 NE 13 20 29.99 1016 10 16 N/A
3:02 pm 15:02 Sunny with Nearby Thunderstorms 74 23.3 63 17.2 69 69 ENE 15 24 29.94 1014 10 16 N/A
3:17 pm 15:17 Sunny 73 22.8 63 17.2 71 71 ENE 9 15 29.94 1014 10 16 N/A
3:54 pm 15:54 Sunny 75 23.9 63 17.2 66 66 NNE 9 15 29.98 1015 10 16 N/A
4:54 pm 16:54 Sunny 76 24.4 64 17.8 67 67 ENE 9 15 29.96 1015 10 16 N/A
5:54 pm 17:54 Sunny 74 23.3 64 17.8 71 71 ENE 8 13 29.98 1015 10 16 N/A
6:54 pm 18:54 Sunny 73 22.8 64 17.8 74 74 NE 9 15 29.98 1015 10 16 N/A
7:54 pm 19:54 Clear 70 21.1 63 17.2 79 79 NE 5 7 29.99 1016 10 16 N/A
8:54 pm 20:54 Clear 69 20.6 63 17.2 81 81 ENE 5 7 30.00 1016 10 16 N/A
9:54 pm 21:54 Clear 67 19.4 63 17.2 87 87 NNE 3 6 30.01 1016 10 16 N/A
10:54 pm 22:54 Clear 67 19.4 63 17.2 87 87 N N/A 29.98 1015 10 16 N/A
11:54 pm 23:54 Clear 66 18.9 63 17.2 90 90 N 7 11 30.00 1016 10 16 N/A

Powered by AerisWeather